This demonstration page uses our WeatherBlox Daily Observations layout. Learn more.

Left ArrowRight Arrow

Hourly Observations for August 4, 2020

Temp ( °F °C ) Dew Point ( °F °C ) Humidity (%) Winds ( mph kmh ) Pressure ( in mb ) Visibility ( mi km ) Precip ( " mm )
12:15 am 00:15 Partly Cloudy 63 17.1 59 15 88 88 SE 8 13 30.09 1019 10 16 N/A
12:35 am 00:35 Clear 62 16.8 59 15 89 89 SE 7 11 30.09 1019 10 16 N/A
12:55 am 00:55 Partly Cloudy 62 16.5 59 15 91 91 SE 7 11 30.11 1020 10 16 N/A
1:15 am 01:15 Mostly Cloudy 62 16.5 59 15 91 91 SE 7 11 30.10 1019 10 16 N/A
1:35 am 01:35 Cloudy 62 16.5 59 15 91 91 SE 7 11 30.10 1019 10 16 N/A
1:55 am 01:55 Cloudy 61 16.3 58 14.6 90 90 SE 8 13 30.08 1019 10 16 N/A
2:15 am 02:15 Partly Cloudy 61 16.1 58 14.5 90 90 SE 8 13 30.08 1019 10 16 N/A
2:35 am 02:35 Partly Cloudy 61 16 58 14.2 89 89 SE 9 15 30.07 1018 10 16 N/A
2:55 am 02:55 Clear 61 15.9 57 14 89 89 SE 9 15 30.06 1018 10 16 N/A
3:15 am 03:15 Clear 60 15.7 57 13.8 89 89 SE 9 15 30.07 1018 10 16 N/A
3:35 am 03:35 Partly Cloudy 60 15.6 57 13.8 89 89 SSE 8 13 30.08 1019 10 16 N/A
3:55 am 03:55 Partly Cloudy 60 15.3 56 13.6 90 90 SE 7 11 30.08 1019 10 16 N/A
4:15 am 04:15 Clear 59 15.2 56 13.6 90 90 SSE 8 13 30.08 1019 10 16 N/A
4:35 am 04:35 Clear 59 15 56 13.4 90 90 SSE 7 11 30.09 1019 10 16 N/A
4:55 am 04:55 Partly Cloudy 59 14.9 56 13.3 90 90 S 6 9 30.09 1019 10 16 N/A
5:15 am 05:15 Clear 58 14.6 56 13.1 91 91 SSE 6 9 30.09 1019 10 16 N/A
5:35 am 05:35 Mostly Cloudy 58 14.6 55 13 90 90 SSE 6 9 30.10 1019 10 16 N/A
5:55 am 05:55 Mostly Cloudy 58 14.5 55 12.8 90 90 SSE 7 11 30.10 1019 10 16 N/A
6:15 am 06:15 Mostly Cloudy 58 14.3 55 12.7 90 90 SSE 6 9 30.11 1019 10 16 N/A
6:35 am 06:35 Mostly Cloudy 58 14.4 55 12.7 90 90 SE 6 9 30.11 1020 10 16 N/A
6:55 am 06:55 Partly Cloudy 58 14.2 55 12.6 90 90 SE 6 9 30.11 1020 10 16 N/A
7:15 am 07:15 Sunny 57 14.1 55 12.6 91 91 SSE 7 11 30.12 1020 10 16 N/A
7:35 am 07:35 Sunny 58 14.5 55 12.7 89 89 SSE 9 15 30.10 1019 10 16 N/A
7:55 am 07:55 Sunny with Nearby Thunderstorms 58 14.7 55 12.7 88 88 SSE 8 13 30.10 1019 10 16 N/A
8:15 am 08:15 Sunny with Nearby Thunderstorms 60 15.7 55 13 84 84 SSE 8 13 30.09 1019 10 16 N/A
8:35 am 08:35 Sunny with Nearby Thunderstorms 62 16.8 55 13 78 78 SSE 10 17 30.08 1019 10 16 N/A
8:55 am 08:55 Mostly Cloudy with Nearby Thunderstorms 63 17 55 13 77 77 SSE 8 13 30.09 1019 10 16 N/A
9:15 am 09:15 Cloudy with Nearby Thunderstorms 62 16.8 55 12.7 77 77 SSE 9 15 30.10 1019 10 16 N/A
9:35 am 09:35 Cloudy with Thunderstorms 62 16.7 55 12.8 78 78 SE 6 9 30.11 1020 10 16 N/A
9:55 am 09:55 Cloudy with Nearby Thunderstorms 61 16.3 56 13.6 84 84 ESE 3 6 30.12 1020 3 5 0.04 1.02
10:15 am 10:15 Cloudy with Thunderstorms 60 15.6 57 14 90 90 S 5 7 30.10 1019 7 11 0.03 0.76
10:35 am 10:35 Cloudy with Light Rain 61 16.1 57 13.8 86 86 SE 5 7 30.12 1020 10 16 0.04 1.02
10:55 am 10:55 Cloudy with Light Rain 60 15.6 58 14.2 91 91 NNW 3 6 30.16 1021 10 16 0.05 1.27
11:15 am 11:15 Cloudy with Rain 60 15.5 58 14.5 94 94 N 3 6 30.17 1022 7 11 0.01 0.25
11:35 am 11:35 Cloudy with Light Rain 60 15.5 58 14.6 94 94 S 7 11 30.11 1020 5 8 0.06 1.52
11:55 am 11:55 Mostly Cloudy with Drizzle 60 15.7 58 14.5 93 93 S 12 19 30.10 1019 10 16 0.06 1.52
12:15 pm 12:15 Partly Cloudy 62 16.8 58 14.6 87 87 S 14 22 30.08 1019 10 16 N/A
12:35 pm 12:35 Sunny 64 17.5 58 14.5 83 83 SSE 13 20 30.08 1019 10 16 0.01 0.25
12:55 pm 12:55 Sunny 65 18.5 59 15 80 80 S 15 24 30.06 1018 10 16 0.01 0.25
1:15 pm 13:15 Mostly Cloudy 66 19.1 59 14.9 77 77 S 15 24 30.05 1018 10 16 N/A
1:35 pm 13:35 Mostly Cloudy 68 20.1 60 15.4 74 74 S 14 22 30.04 1017 10 16 N/A
1:55 pm 13:55 Sunny 70 21 60 15.7 72 72 SSE 10 17 30.03 1017 10 16 N/A
2:15 pm 14:15 Sunny 71 21.6 60 15.4 68 68 S 14 22 30.02 1017 10 16 N/A
2:35 pm 14:35 Sunny 71 21.9 59 15.1 65 65 S 15 24 30.01 1016 10 16 N/A
2:55 pm 14:55 Sunny 72 22.2 60 15.3 65 65 S 14 22 30.02 1017 10 16 N/A
3:15 pm 15:15 Sunny 73 22.9 60 15.6 64 64 SSE 9 15 30.00 1016 10 16 N/A
3:35 pm 15:35 Sunny 73 22.9 60 15.4 63 63 SSE 12 19 30.00 1016 10 16 N/A
3:55 pm 15:55 Partly Cloudy 74 23.1 60 15.5 62 62 SE 12 19 30.00 1016 10 16 N/A
4:15 pm 16:15 Mostly Cloudy 75 23.7 60 15.7 61 61 SSE 12 19 29.99 1015 10 16 N/A
4:35 pm 16:35 Mostly Cloudy 73 22.8 60 15.6 64 64 SE 10 17 29.98 1015 10 16 N/A
4:55 pm 16:55 Cloudy 73 22.5 60 15.5 65 65 SE 9 15 29.99 1015 10 16 N/A
5:15 pm 17:15 Cloudy 72 22.2 60 15.5 66 66 SE 12 19 29.99 1016 10 16 N/A
5:35 pm 17:35 Cloudy 73 22.5 60 15.4 64 64 SE 14 22 29.98 1015 10 16 N/A
5:55 pm 17:55 Cloudy 72 22.1 60 15.5 66 66 SE 10 17 29.98 1015 10 16 N/A
6:15 pm 18:15 Cloudy 71 21.8 60 15.3 67 67 SE 13 20 29.97 1015 10 16 N/A
6:35 pm 18:35 Cloudy 71 21.7 59 15.2 67 67 SE 15 24 29.96 1015 10 16 N/A
6:55 pm 18:55 Partly Cloudy 69 20.8 59 14.8 69 69 SE 14 22 29.96 1015 10 16 N/A
7:15 pm 19:15 Partly Cloudy 69 20.6 60 15.3 72 72 SSE 8 13 29.97 1015 10 16 N/A
7:35 pm 19:35 Cloudy 69 20.5 59 15.1 71 71 SE 9 15 29.98 1015 10 16 N/A
7:55 pm 19:55 Cloudy 68 20.1 59 15 73 73 SE 7 11 29.99 1015 10 16 N/A
8:15 pm 20:15 Cloudy 68 20 59 15.2 74 74 SE 7 11 30.00 1016 10 16 N/A
8:35 pm 20:35 Cloudy 68 19.8 59 15.2 75 75 SE 8 13 29.99 1016 10 16 N/A
8:55 pm 20:55 Cloudy 67 19.6 59 14.9 74 74 SE 7 11 30.00 1016 10 16 N/A
9:15 pm 21:15 Cloudy 67 19.3 59 14.9 76 76 SSE 9 15 29.98 1015 10 16 N/A
9:35 pm 21:35 Cloudy 66 19 59 14.8 77 77 SSE 9 15 29.99 1015 10 16 N/A
9:55 pm 21:55 Partly Cloudy 65 18.5 59 15 80 80 SSE 9 15 29.98 1015 10 16 N/A
10:15 pm 22:15 Clear 65 18.5 58 14.5 78 78 SSE 12 19 29.98 1015 10 16 N/A
10:35 pm 22:35 Clear 65 18.5 58 14.6 78 78 SSE 8 13 29.99 1016 10 16 N/A
10:55 pm 22:55 Clear 65 18.1 58 14.6 80 80 SE 8 13 29.99 1016 10 16 N/A
11:15 pm 23:15 Clear 64 18 58 14.5 80 80 SSE 8 13 29.98 1015 10 16 N/A
11:35 pm 23:35 Clear 63 17.1 58 14.4 84 84 SE 6 9 29.98 1015 10 16 N/A
11:55 pm 23:55 Clear 62 16.7 58 14.4 86 86 S 6 9 29.96 1015 10 16 N/A

Powered by AerisWeather